This demonstration page uses our WeatherBlox Daily Observations layout. Learn more.

Left ArrowRight Arrow

Hourly Observations for July 9, 2016

Temp ( °F °C ) Dew Point ( °F °C ) Humidity (%) Winds ( mph kmh ) Pressure ( in mb ) Visibility ( mi km ) Precip ( " mm )
12:15 am 00:15 Clear 73 22.5 69 20.3 87 87 E 9 15 29.94 1014 10 16 N/A
12:35 am 00:35 Clear 72 22.2 68 20.1 88 88 ESE 9 15 29.94 1014 10 16 N/A
12:55 am 00:55 Clear 72 22 67 19.7 87 87 ESE 9 15 29.94 1014 10 16 N/A
1:15 am 01:15 Clear 71 21.7 66 19 85 85 ESE 9 15 29.94 1014 10 16 N/A
1:35 am 01:35 Clear 71 21.6 65 18.6 83 83 ESE 9 15 29.94 1014 10 16 N/A
1:55 am 01:55 Clear 71 21.4 65 18.3 83 83 ESE 8 13 29.94 1014 10 16 N/A
2:15 am 02:15 Clear 70 21.2 65 18.1 83 83 ESE 6 9 29.94 1014 10 16 N/A
2:35 am 02:35 Clear 69 20.7 64 18 85 85 ESE 5 7 29.94 1014 10 16 N/A
2:55 am 02:55 Clear 69 20.3 65 18.1 87 87 SE 5 7 29.94 1014 10 16 N/A
3:15 am 03:15 Clear 68 20.2 65 18.2 88 88 ESE 6 9 29.91 1013 10 16 N/A
3:35 am 03:35 Clear 68 20 65 18.1 89 89 ESE 6 9 29.91 1013 10 16 N/A
3:55 am 03:55 Clear 67 19.7 64 18 90 90 ESE 5 7 29.94 1014 10 16 N/A
4:15 am 04:15 Clear 67 19.7 65 18.1 91 91 ESE 3 6 29.94 1014 10 16 N/A
4:35 am 04:35 Clear 65 18.3 63 17 92 92 ESE 6 9 29.97 1015 7 11 N/A
4:55 am 04:55 Clear 65 18.5 63 17.4 93 93 E 6 9 29.97 1015 7 11 N/A
5:15 am 05:15 Clear 65 18.1 63 17.1 94 94 ENE 3 6 29.97 1015 7 11 N/A
5:35 am 05:35 Clear 65 18.4 63 17.4 94 94 ESE 5 7 29.97 1015 7 11 N/A
5:55 am 05:55 Clear 66 19.1 65 18.1 94 94 SE 6 9 29.97 1015 7 11 N/A
6:15 am 06:15 Clear 67 19.2 65 18.1 93 93 SE 6 9 29.97 1015 7 11 N/A
6:35 am 06:35 Sunny with Mist and Fog 67 19.2 65 18.1 93 93 SE 3 6 29.97 1015 5 8 N/A
6:55 am 06:55 Sunny with Mist and Fog 67 19.4 65 18.4 94 94 SE 6 9 29.97 1015 5 8 N/A
7:15 am 07:15 Sunny with Mist and Fog 67 19.7 65 18.5 93 93 ESE 8 13 29.97 1015 5 8 N/A
7:35 am 07:35 Sunny with Mist and Fog 68 20.2 66 18.8 92 92 SE 9 15 29.94 1014 5 8 N/A
7:55 am 07:55 Sunny 70 21 67 19.2 90 90 SE 7 11 29.94 1014 7 11 N/A
8:15 am 08:15 Sunny 71 21.9 67 19.6 87 87 SE 7 11 29.94 1014 10 16 N/A
8:35 am 08:35 Sunny 73 22.8 68 20.1 85 85 SSE 8 13 29.94 1014 10 16 N/A
8:55 am 08:55 Sunny 74 23.5 69 20.5 83 83 SSE 6 9 29.94 1014 10 16 N/A
9:15 am 09:15 Sunny 77 24.8 70 21.3 81 81 S 6 9 29.91 1013 10 16 N/A
9:35 am 09:35 Sunny 78 25.6 71 21.5 78 78 S 7 11 29.91 1013 10 16 N/A
9:55 am 09:55 Sunny 79 26.3 72 22 77 77 S 9 15 29.91 1013 10 16 N/A
10:15 am 10:15 Sunny 81 27 72 22 74 74 S 10 17 29.91 1013 10 16 N/A
10:35 am 10:35 Sunny 81 27.3 72 22.2 74 74 S 10 17 29.88 1012 10 16 N/A
10:55 am 10:55 Sunny 82 27.8 72 22.3 72 72 SSE 8 13 29.88 1012 10 16 N/A
11:15 am 11:15 Sunny 83 28.6 73 22.8 71 71 SSE 9 15 29.85 1011 10 16 N/A
11:35 am 11:35 Sunny 84 28.8 73 22.7 70 70 SSE 12 19 29.85 1011 10 16 N/A
11:55 am 11:55 Sunny 85 29.2 74 23.3 71 71 SSE 12 19 29.88 1012 10 16 N/A
12:15 pm 12:15 Sunny 85 29.6 73 23 68 68 S 13 20 29.85 1011 10 16 N/A
12:35 pm 12:35 Sunny 86 29.9 74 23.2 67 67 S 13 20 29.85 1011 10 16 N/A
12:55 pm 12:55 Sunny 87 30.3 73 22.8 64 64 S 14 22 29.85 1011 10 16 N/A
1:15 pm 13:15 Sunny 87 30.8 73 22.9 63 63 S 16 26 29.83 1010 10 16 N/A
1:35 pm 13:35 Sunny 88 31.2 74 23.3 63 63 SSE 13 20 29.83 1010 10 16 N/A
1:55 pm 13:55 Sunny 88 31.2 73 22.6 60 60 SSE 14 22 29.83 1010 10 16 N/A
2:15 pm 14:15 Sunny 89 31.4 73 22.7 60 60 SSE 15 24 29.83 1010 10 16 N/A
2:35 pm 14:35 Sunny 89 31.6 72 22.2 57 57 SSE 15 24 29.80 1009 10 16 N/A
2:55 pm 14:55 Sunny 89 31.8 73 22.5 58 58 S 13 20 29.80 1009 10 16 N/A
3:15 pm 15:15 Sunny 90 32.1 72 22.3 56 56 SSE 10 17 29.80 1009 10 16 N/A
3:35 pm 15:35 Sunny 90 32.3 71 21.9 54 54 S 14 22 29.80 1009 10 16 N/A
3:55 pm 15:55 Sunny 91 32.5 71 21.8 53 53 SSE 17 28 29.80 1009 10 16 N/A
4:15 pm 16:15 Sunny 91 32.5 72 22 54 54 SSE 13 20 29.80 1009 10 16 N/A
4:35 pm 16:35 Sunny 91 32.6 71 21.8 53 53 SSE 16 26 29.80 1009 10 16 N/A
4:55 pm 16:55 Sunny 91 32.7 71 21.6 52 52 SSE 16 26 29.77 1008 10 16 N/A
5:15 pm 17:15 Sunny 91 32.7 70 21 50 50 SSE 14 22 29.77 1008 10 16 N/A
5:35 pm 17:35 Sunny 91 32.7 71 21.5 52 52 SSE 15 24 29.77 1008 10 16 N/A
5:55 pm 17:55 Sunny 90 32.3 71 21.6 53 53 SSE 14 22 29.77 1008 10 16 N/A
6:15 pm 18:15 Sunny 90 32.2 71 21.9 55 55 SE 15 24 29.74 1007 10 16 N/A
6:35 pm 18:35 Sunny 90 32 72 22 55 55 SSE 14 22 29.74 1007 10 16 N/A
6:55 pm 18:55 Sunny 89 31.9 71 21.9 55 55 SSE 15 24 29.74 1007 10 16 N/A
7:15 pm 19:15 Sunny 89 31.5 70 21.3 55 55 SSE 14 22 29.74 1007 10 16 N/A
7:35 pm 19:35 Sunny 88 31 71 21.4 57 57 SSE 13 20 29.74 1007 10 16 N/A
7:55 pm 19:55 Sunny 87 30.5 71 21.5 59 59 SSE 12 19 29.74 1007 10 16 N/A
8:15 pm 20:15 Sunny 85 29.6 71 21.6 62 62 SSE 9 15 29.77 1008 10 16 N/A
8:35 pm 20:35 Sunny 84 28.7 71 21.4 65 65 SSE 9 15 29.77 1008 10 16 N/A
8:55 pm 20:55 Sunny 83 28.5 70 21.3 65 65 SE 9 15 29.77 1008 10 16 N/A
9:15 pm 21:15 Clear 83 28.1 70 21 65 65 SSE 10 17 29.77 1008 10 16 N/A
9:35 pm 21:35 Clear 81 27.4 69 20.8 67 67 SSE 10 17 29.77 1008 10 16 N/A
9:55 pm 21:55 Clear 80 26.9 69 20.8 69 69 SSE 10 17 29.77 1008 10 16 N/A
10:15 pm 22:15 Clear 80 26.7 69 20.7 70 70 SSE 12 19 29.77 1008 10 16 N/A
10:35 pm 22:35 Clear 80 26.5 69 20.6 70 70 SSE 12 19 29.80 1009 10 16 N/A
10:55 pm 22:55 Clear 79 25.9 69 20.6 73 73 SSE 10 17 29.80 1009 10 16 N/A
11:15 pm 23:15 Clear 78 25.6 69 20.5 73 73 SSE 12 19 29.80 1009 10 16 N/A
11:35 pm 23:35 Clear 78 25.5 69 20.3 73 73 SSE 12 19 29.80 1009 10 16 N/A
11:55 pm 23:55 Clear 77 25.2 69 20.3 74 74 SSE 9 15 29.83 1010 10 16 N/A

Powered by AerisWeather